Theta_e
329 330 336 332 331 331 337 337 328 331 334 331 334 336 335 338 339 337 336 337 333 325 332 333 335 328 336 329 322 326 332 333 329 328 328 331 334 335 334 333 332 331 329 329 327 324 320 317 318
335 338 333 325 335 341 339 331 332 329 333 334 332 336 338 342 337 334 336 336 330 324 332 333 335 328 330 333 332 333 333 330 329 329 327 326 326 326 330 331 331 332 330 330 327 321 317 315 314
331 333 326 330 335 340 338 330 329 330 331 330 334 333 338 341 335 336 337 334 325 328 333 334 336 333 329 324 323 326 326 322 320 320 322 322 324 322 320 323 327 329 331 330 329 323 322 319 317
327 325 322 332 339 340 337 331 328 327 326 330 332 337 336 336 336 337 335 328 323 330 333 332 335 332 328 320 324 323 323 326 324 324 324 323 323 323 322 320 319 322 327 330 330 328 324 320 319
325 323 330 333 335 338 332 328 325 328 325 327 331 340 340 336 337 337 330 326 324 328 331 332 331 332 328 323 328 327 327 328 324 321 323 319 317 320 323 320 317 318 326 328 327 327 324 322 320
323 324 333 335 333 333 328 326 325 326 325 332 336 336 338 336 337 335 331 326 326 327 328 331 330 328 325 327 329 330 330 330 325 324 323 321 319 318 320 319 318 317 316 318 323 324 322 319 316
325 329 333 333 333 332 330 323 324 324 325 328 332 339 337 335 336 335 330 327 329 330 329 330 331 331 331 329 331 332 333 332 328 324 324 324 323 322 321 321 321 320 320 319 317 316 317 317 317
322 326 332 333 333 333 326 323 322 322 323 326 331 337 340 334 336 335 334 334 332 328 327 330 331 331 331 332 331 332 334 333 331 325 325 326 325 324 324 323 322 322 322 322 322 322 322 322 322
321 325 331 333 333 331 324 327 324 320 323 326 327 332 332 336 336 336 335 335 333 331 326 324 323 324 326 329 330 331 333 334 333 327 325 326 327 327 326 326 328 325 325 325 325 325 324 323 323
322 325 327 328 327 328 326 327 324 325 329 332 334 332 334 335 336 335 334 333 333 332 327 324 323 322 323 324 326 330 332 333 332 327 327 325 324 325 325 327 329 329 329 328 327 327 327 325 324
323 325 325 324 324 325 326 327 323 325 327 330 334 336 334 335 335 334 334 335 334 333 330 327 326 325 322 321 321 322 323 325 324 325 326 325 323 322 322 327 329 329 329 328 327 327 327 327 326
328 324 323 323 324 324 326 325 325 324 324 324 334 335 334 334 334 334 334 335 334 333 333 333 333 332 333 332 332 330 328 326 324 323 323 323 323 323 326 326 327 328 328 328 327 327 327 327 327
329 325 324 321 321 322 323 326 325 324 327 333 334 335 334 333 334 335 336 336 335 335 335 336 336 336 335 334 333 334 333 331 327 327 328 327 327 327 327 327 327 327 327 328 328 328 328 328 329
326 327 325 323 322 323 326 326 326 325 330 335 336 335 333 332 332 334 335 336 336 337 336 335 336 336 336 335 335 334 334 333 332 331 330 330 330 329 329 329 328 327 328 328 329 329 330 330 330
327 326 323 323 324 326 325 329 327 325 331 336 335 332 332 332 333 333 335 336 337 337 337 337 337 336 336 336 335 335 334 334 333 333 332 332 332 332 331 331 331 331 330 329 330 330 331 331 330
329 327 328 324 324 325 325 330 327 328 333 334 331 330 332 332 333 335 335 335 336 337 337 336 336 336 336 336 335 335 334 334 333 333 333 333 333 333 333 333 333 332 332 332 331 331 331 331 329
329 334 328 327 319 322 327 329 325 325 331 332 331 329 331 331 331 335 336 336 336 336 336 336 336 336 335 335 335 334 334 334 335 334 334 334 334 334 334 333 333 333 333 332 332 331 331 330 328
331 333 330 328 322 322 325 327 322 324 329 330 328 328 329 329 329 333 334 334 334 334 334 334 334 335 335 335 335 335 335 335 335 334 334 334 334 334 333 334 333 332 332 332 331 331 329 326 323
328 330 332 326 321 321 325 325 322 322 325 325 324 325 325 325 314 322 328 330 331 330 332 332 333 333 333 334 334 335 334 334 333 333 332 332 332 332 331 329 330 330 329 328 325 323 321 319 318
329 330 330 327 323 323 321 324 320 320 321 321 323 321 322 312 309 311 316 320 323 321 323 324 323 323 325 328 330 330 330 328 327 324 322 324 325 325 324 322 320 319 319 319 319 318 318 317 318
329 331 330 329 324 321 323 324 321 319 319 317 318 317 314 309 309 308 309 311 312 314 315 315 316 317 317 318 318 319 320 321 320 319 319 319 319 318 318 317 316 315 315 314 315 316 317 316 318
330 327 327 327 327 334 326 337 328 320 319 317 315 311 308 308 307 307 308 309 310 311 312 312 313 313 313 314 315 316 316 316 314 314 314 315 316 317 317 316 316 315 314 313 313 314 315 315 314
327 325 326 326 326 327 327 332 329 319 320 319 318 310 307 307 307 307 309 309 309 310 311 310 310 310 311 311 311 312 312 311 311 310 310 310 310 313 313 313 313 313 312 311 310 310 311 311 311
323 324 324 324 323 329 326 328 328 324 320 318 311 310 308 308 307 308 308 309 309 309 309 309 309 308 309 309 308 308 307 306 306 305 305 304 304 304 304 303 304 304 304 304 304 305 306 307 307
322 324 323 326 326 329 323 324 325 322 321 315 312 310 310 309 308 307 306 307 308 308 308 308 308 307 306 306 305 305 304 304 304 303 303 303 302 302 301 301 301 301 300 300 300 300 301 301 301
323 322 324 328 326 319 317 326 324 317 316 314 312 311 310 308 307 306 306 306 306 306 307 306 306 305 305 305 304 304 303 303 302 301 301 300 300 299 299 299 299 299 299 299 299 299 298 298 298
323 321 315 314 311 316 316 312 308 308 308 312 312 311 309 307 306 305 306 306 306 306 305 305 305 304 304 303 302 302 301 301 300 299 299 298 298 297 297 297 297 297 297 297 296 296 296 296 296
320 316 318 316 321 321 312 311 311 310 310 310 310 308 306 306 305 304 304 305 305 305 304 304 303 302 301 300 300 299 298 297 296 296 296 296 296 296 296 296 296 296 295 295 295 295 295 294 294
319 318 314 314 314 315 315 312 306 309 309 310 310 308 308 306 305 303 304 305 305 303 302 300 300 299 299 298 297 297 296 296 295 295 295 295 294 294 294 294 294 294 293 293 293 293 292 292 292
314 318 313 318 315 313 314 311 306 306 306 307 306 307 306 305 304 303 304 304 302 300 298 297 297 298 297 296 296 295 295 295 295 294 293 293 294 293 293 292 292 292 292 291 291 290 290 290 290
Wind_Speed
8 10 5 3 3 3 3 3 1 3 2 2 2 3 7 3 2 3 7 15 25 26 23 21 19 17 15 16 18 17 14 12 12 11 10 10 10 9 8 8 8 8 8 8 8 8 8 9 7
2 1 1 2 3 1 4 5 4 3 5 7 5 3 6 2 3 7 14 15 27 27 24 22 21 18 17 17 17 16 12 11 9 8 7 7 6 6 6 7 6 5 6 6 6 6 7 7 6
1 1 2 3 3 3 3 3 1 3 6 1 4 5 3 2 3 14 7 27 28 27 25 23 21 20 17 15 14 12 10 8 7 6 5 5 4 4 4 5 4 6 5 3 3 3 4 4 4
0 4 3 3 3 4 4 2 2 4 2 5 4 6 3 3 14 11 26 28 28 27 24 23 22 20 16 14 13 11 10 8 5 5 5 4 4 3 4 3 3 4 3 3 1 1 3 3 4
3 2 2 2 4 3 3 4 7 2 4 3 1 3 3 3 10 22 29 27 27 26 23 21 21 20 16 15 13 11 10 7 5 4 5 4 4 4 3 2 3 3 4 4 2 4 4 5 7
3 2 2 2 4 3 3 4 4 1 2 4 6 4 3 12 24 30 25 25 24 25 23 20 18 17 15 14 12 10 8 5 4 4 4 3 3 4 4 2 1 1 2 4 5 6 7 8 9
3 2 3 2 3 3 3 6 2 4 4 2 9 4 3 6 22 27 25 23 22 21 21 19 18 16 14 13 11 10 8 6 4 5 5 4 3 3 3 3 2 2 3 3 4 5 6 7 8
2 2 2 3 2 4 5 7 4 5 2 3 3 6 5 9 24 26 24 22 20 19 19 18 17 16 16 15 13 12 12 12 7 7 7 7 6 5 4 4 5 5 5 6 6 7 8 9 11
1 2 2 3 3 3 1 4 4 3 6 1 2 6 7 30 28 26 23 20 19 18 17 17 17 17 16 15 14 13 14 13 10 9 9 9 8 8 8 7 6 7 8 9 10 11 12 12 14
2 3 6 4 3 4 2 3 8 5 4 2 3 5 25 30 28 21 19 19 21 20 19 17 16 16 15 15 14 14 14 14 12 11 10 10 10 10 10 10 10 10 11 11 12 13 14 15 16
2 4 3 6 3 1 4 2 3 9 3 6 8 15 18 25 21 19 19 25 25 21 20 18 16 15 15 14 14 14 14 13 13 13 13 12 13 13 14 13 12 13 12 14 14 14 14 15 16
3 5 3 6 4 5 3 5 4 5 4 6 12 21 18 16 17 20 21 23 21 22 20 18 17 15 15 13 12 11 12 13 14 14 14 14 14 14 13 14 14 15 14 15 15 16 17 18 18
4 2 6 6 9 5 5 6 5 5 4 10 13 16 14 13 16 19 26 23 22 21 21 19 18 16 15 16 14 13 12 12 13 14 14 15 15 15 14 15 16 16 16 17 19 19 20 21 21
3 2 7 6 5 4 3 3 4 1 7 10 16 11 11 12 18 18 24 24 23 22 21 20 20 19 17 17 15 15 14 13 13 13 13 14 16 17 17 17 18 19 18 20 21 21 22 24 25
3 3 6 3 2 4 1 2 5 5 8 13 10 8 7 10 20 20 26 26 25 23 21 21 20 20 21 18 16 16 16 15 16 16 15 16 17 18 19 21 21 20 20 21 22 23 24 26 27
4 3 1 2 5 2 5 8 2 7 13 9 9 7 7 8 17 22 25 24 23 24 22 20 19 19 19 19 18 17 17 17 17 18 17 17 18 20 21 22 24 23 21 21 21 23 24 25 26
4 4 5 2 2 2 4 5 4 6 8 10 9 8 8 6 8 22 23 22 22 22 20 21 21 20 19 19 19 18 18 18 18 19 20 20 21 21 23 24 25 25 26 24 23 23 21 25 26
6 3 5 8 1 2 5 5 2 7 8 10 8 8 7 7 10 21 21 21 19 21 21 20 20 21 21 21 20 18 18 18 18 19 20 21 21 22 22 23 23 22 22 21 19 18 19 21 23
7 7 7 2 1 1 4 3 3 3 4 7 7 7 7 7 4 4 9 14 15 14 17 15 14 15 15 16 18 18 19 18 15 13 13 13 13 16 17 14 11 12 12 13 13 15 18 23 19
10 11 9 3 3 3 1 3 1 2 5 6 9 8 8 6 5 11 13 12 11 10 9 8 6 5 4 7 9 8 7 4 2 3 5 6 6 7 10 10 11 11 13 12 13 12 13 15 13
5 16 10 6 3 2 3 2 1 2 1 3 4 6 6 9 8 7 13 13 13 12 10 9 7 4 2 1 2 1 2 1 2 5 6 7 8 8 9 10 11 11 12 13 12 11 9 9 14
8 4 8 7 6 10 2 7 4 2 4 5 6 9 9 8 5 7 10 11 10 10 9 8 7 5 4 4 3 3 4 3 5 7 8 9 9 9 9 9 10 11 11 12 12 12 11 10 13
3 13 8 4 4 3 2 4 4 3 6 5 5 7 8 8 6 7 11 11 10 9 13 11 10 12 11 10 10 9 8 7 7 8 8 8 9 9 9 10 11 11 13 13 13 13 12 11 13
10 9 9 5 3 2 4 3 3 8 6 3 1 6 6 8 9 10 10 15 14 11 15 13 12 16 14 12 12 12 11 10 9 11 11 12 11 11 12 12 12 12 14 15 15 14 14 14 14
12 10 3 2 3 1 6 3 4 5 3 3 8 9 5 7 8 8 9 11 16 11 14 13 13 15 13 13 12 12 12 11 11 12 13 13 14 16 16 17 17 16 16 16 16 16 16 16 17
17 4 4 4 4 3 4 4 4 6 3 3 6 7 4 10 7 9 13 10 10 11 13 12 13 13 11 11 11 11 10 10 11 11 11 12 14 15 16 17 17 17 18 17 17 17 18 19 19
5 3 1 5 2 3 4 4 2 5 5 8 10 9 10 5 7 7 11 10 8 10 12 11 12 13 12 12 10 11 11 12 13 12 11 13 13 14 14 15 17 17 18 18 19 19 20 19 20
3 4 4 2 3 1 2 3 3 4 10 11 13 10 8 6 8 7 10 11 10 10 11 12 13 14 12 12 12 14 14 14 13 12 14 15 15 15 17 18 18 19 19 20 21 21 21 21 21
5 2 1 4 2 4 4 4 1 4 7 13 10 10 11 9 8 7 11 11 12 12 13 14 14 14 14 13 12 13 13 13 11 12 14 15 16 18 18 19 20 20 21 20 21 20 20 21 22
0 6 4 3 3 2 1 1 2 4 4 6 6 7 6 8 8 8 13 15 14 14 14 15 14 14 13 11 10 11 11 11 12 14 16 17 19 19 20 21 22 22 23 23 22 22 23 23 25
Wind_Direction
72 115 133 50 60 63 253 259 253 120 105 350 48 134 145 51 137 194 153 154 159 155 153 156 152 147 136 138 131 131 136 127 119 115 115 114 112 107 99 97 83 89 88 86 83 81 80 84 93
72 35 49 81 101 97 281 304 162 169 148 135 87 73 51 77 83 116 134 163 161 154 154 159 158 150 143 135 138 137 140 134 127 126 128 126 123 123 125 118 115 110 104 94 83 77 75 79 84
33 300 84 99 111 193 238 272 244 97 155 18 95 56 97 122 69 146 164 159 158 155 157 158 160 155 149 147 148 149 148 144 141 144 146 144 142 147 137 140 150 124 141 114 96 80 47 59 58
121 14 27 93 227 230 207 220 168 149 142 59 113 65 43 292 149 170 157 159 159 159 160 159 162 162 157 152 150 149 145 139 142 152 156 154 152 150 145 160 178 187 179 180 193 305 13 16 15
49 63 66 93 266 246 198 184 150 201 119 90 60 139 48 27 150 151 156 161 161 162 165 163 166 167 165 161 159 155 153 142 136 139 144 145 147 156 155 122 116 153 183 203 234 252 308 323 330
34 84 70 186 254 312 7 127 156 160 120 156 82 92 102 140 142 153 159 163 164 162 168 169 170 173 172 170 167 164 164 156 143 148 152 144 138 152 163 182 205 216 226 240 256 275 299 312 317
86 79 205 193 257 310 169 127 169 168 141 199 145 90 88 151 153 156 159 163 165 167 169 173 174 177 179 179 180 181 179 204 189 176 174 177 177 176 191 218 233 249 262 270 273 281 294 302 306
106 86 247 217 243 266 186 150 167 154 177 94 146 159 165 177 161 159 158 161 163 169 175 179 181 183 187 192 195 196 197 212 220 207 204 212 217 223 227 236 245 256 265 270 277 285 292 297 301
39 64 231 245 186 312 38 131 146 91 115 10 68 149 172 157 162 157 155 157 164 172 178 183 187 189 194 197 202 207 212 217 227 227 226 233 238 245 251 256 263 266 273 281 288 291 293 296 298
121 152 215 238 346 318 242 211 161 118 130 26 53 59 132 146 154 152 156 161 173 178 182 187 189 190 194 199 203 208 214 222 232 240 243 249 252 256 263 258 262 270 275 278 283 289 291 292 297
188 204 241 294 273 289 276 172 213 124 225 201 177 146 145 150 158 159 169 174 182 183 185 189 191 193 197 202 205 212 218 228 238 246 248 256 259 260 258 260 262 270 272 281 282 285 289 293 296
236 248 241 285 299 347 269 159 203 167 227 172 159 152 151 156 165 168 175 183 187 189 188 190 191 197 201 204 208 215 228 236 237 238 240 245 252 256 264 269 276 281 284 288 286 286 292 295 297
193 280 305 285 304 271 279 252 195 194 79 113 132 150 155 159 169 179 186 187 190 197 198 199 199 203 208 213 217 224 231 238 245 248 251 251 252 257 264 270 277 281 285 288 292 294 297 298 301
127 234 272 275 274 277 242 245 175 143 133 125 147 159 163 164 170 181 191 194 198 202 203 205 210 212 216 224 230 236 243 250 252 255 262 270 275 277 277 279 282 285 289 293 294 295 297 297 298
134 333 317 224 220 255 196 268 228 137 141 147 157 156 161 173 176 187 196 200 203 208 210 212 220 221 223 227 237 246 252 260 265 268 273 275 279 285 288 289 288 290 290 290 290 292 294 294 297
155 143 228 317 181 235 143 242 214 148 147 164 158 165 172 191 190 197 199 206 209 214 216 216 221 226 230 235 244 250 257 264 272 278 281 280 280 281 281 282 286 292 288 288 288 291 292 295 297
226 183 166 299 35 217 157 241 162 160 164 171 171 172 188 190 201 207 208 212 214 216 220 223 227 228 234 242 247 253 258 263 270 275 280 284 284 284 283 283 287 290 288 287 287 290 292 296 299
177 179 188 197 275 287 135 278 310 177 171 184 177 174 187 195 214 214 216 218 218 217 222 225 230 232 237 244 249 253 258 266 270 276 281 285 287 286 284 286 287 290 289 286 285 289 296 301 305
191 198 213 146 50 190 198 198 259 199 168 172 192 181 189 205 51 148 208 221 224 224 226 229 234 237 242 249 253 258 263 270 276 281 288 291 292 292 291 299 304 304 306 306 310 313 312 308 319
164 189 201 123 332 153 233 191 208 190 222 198 190 180 169 123 78 90 116 126 141 137 145 162 168 185 209 235 248 259 273 294 323 333 342 342 331 320 308 324 326 325 319 317 318 322 321 312 321
187 189 177 193 162 64 118 298 150 219 147 125 125 129 125 141 129 104 102 104 114 111 109 113 111 110 119 241 249 307 355 15 29 7 8 11 3 356 348 346 345 344 339 336 335 332 331 309 315
190 158 133 136 179 210 142 238 252 160 230 152 119 111 117 118 101 100 101 92 97 99 101 105 106 95 65 43 25 43 62 53 33 26 21 15 10 7 358 355 353 350 350 347 342 338 334 321 311
157 133 105 79 89 131 155 196 187 131 230 181 157 118 123 126 126 120 108 94 82 94 99 84 86 85 69 65 67 72 73 61 48 37 32 25 19 17 8 358 352 346 346 343 340 338 335 330 318
118 104 64 51 75 222 177 181 230 187 170 109 350 107 128 129 113 82 95 109 93 85 90 91 84 75 74 68 66 64 64 59 54 41 31 24 21 15 9 2 355 347 342 340 335 330 323 318 313
121 121 131 152 183 220 151 134 248 272 237 67 181 110 174 132 122 112 94 89 96 109 96 93 84 78 72 67 63 58 54 47 43 34 23 15 11 8 3 358 355 352 346 339 333 330 326 324 320
159 171 144 155 170 142 167 206 245 207 276 176 108 138 143 135 137 120 116 119 120 104 100 98 90 83 74 70 64 56 50 47 45 37 31 25 18 10 0 358 355 352 348 343 338 333 331 327 323
156 143 53 106 42 99 186 255 165 129 156 163 167 187 156 114 102 121 134 133 114 109 96 97 93 84 74 68 65 60 55 48 48 42 36 32 21 11 3 357 351 349 343 339 337 335 334 329 324
156 137 111 8 125 188 280 280 208 159 156 161 156 155 158 144 124 126 142 143 129 114 111 102 90 82 78 75 70 66 63 57 49 39 31 24 13 3 356 351 347 341 337 336 334 330 328 324 322
137 191 123 115 147 156 140 245 320 177 182 164 161 163 154 143 140 150 148 136 128 119 109 101 96 90 81 76 73 68 59 50 36 26 16 8 359 354 349 345 341 340 336 335 333 330 329 327 324
267 160 151 119 226 34 115 221 347 287 218 158 151 147 139 145 147 147 148 140 129 121 115 100 93 87 82 78 69 60 46 30 17 9 3 355 350 347 345 342 340 338 337 336 335 333 330 330 328